TimeCDT,TemperatureF,Dew PointF,Humidity,Sea Level PressureIn,VisibilityMPH,Wind Direction,Wind SpeedMPH,Gust SpeedMPH,PrecipitationIn,Events,Conditions,WindDirDegrees,DateUTC
12:15 AM,28.6,25.2,87,30.18,10.0,WNW,5.8,-,N/A,,Clear,290,2013-10-16 05:15:00
12:35 AM,28.8,25.5,88,30.17,10.0,WNW,6.9,-,N/A,,Clear,290,2013-10-16 05:35:00
12:55 AM,28.0,25.0,88,30.17,10.0,WNW,5.8,-,N/A,,Clear,290,2013-10-16 05:55:00
1:15 AM,28.4,25.5,89,30.17,10.0,WSW,4.6,-,N/A,,Clear,240,2013-10-16 06:15:00
1:35 AM,28.0,25.2,89,30.16,10.0,West,5.8,-,N/A,,Clear,270,2013-10-16 06:35:00
1:55 AM,28.4,25.3,88,30.16,10.0,West,3.5,-,N/A,,Clear,270,2013-10-16 06:55:00
2:15 AM,28.0,24.8,88,30.15,10.0,West,3.5,-,N/A,,Clear,270,2013-10-16 07:15:00
2:35 AM,26.6,23.9,90,30.15,10.0,Calm,Calm,-,N/A,,Clear,0,2013-10-16 07:35:00
2:55 AM,27.5,24.6,89,30.15,10.0,WSW,4.6,-,N/A,,Clear,250,2013-10-16 07:55:00
3:15 AM,27.1,24.1,88,30.14,10.0,WSW,4.6,-,N/A,,Clear,250,2013-10-16 08:15:00
3:35 AM,27.1,24.3,89,30.14,10.0,WSW,8.1,-,N/A,,Clear,250,2013-10-16 08:35:00
3:55 AM,27.5,24.1,87,30.13,10.0,WSW,9.2,-,N/A,,Clear,250,2013-10-16 08:55:00
4:15 AM,27.5,23.9,86,30.13,10.0,West,9.2,-,N/A,,Clear,260,2013-10-16 09:15:00
4:35 AM,27.3,23.7,86,30.13,10.0,WSW,8.1,-,N/A,,Clear,250,2013-10-16 09:35:00
4:55 AM,27.3,23.7,86,30.12,10.0,West,6.9,-,N/A,,Clear,260,2013-10-16 09:55:00
5:15 AM,27.5,23.7,86,30.13,10.0,WSW,8.1,-,N/A,,Scattered Clouds,250,2013-10-16 10:15:00
5:35 AM,28.8,24.4,84,30.12,10.0,West,8.1,-,N/A,,Mostly Cloudy,260,2013-10-16 10:35:00
5:55 AM,28.2,23.9,84,30.12,10.0,West,6.9,-,N/A,,Scattered Clouds,270,2013-10-16 10:55:00
6:15 AM,27.3,23.5,86,30.12,10.0,West,4.6,-,N/A,,Clear,280,2013-10-16 11:15:00
6:35 AM,26.6,23.5,88,30.11,10.0,West,5.8,-,N/A,,Clear,270,2013-10-16 11:35:00
6:55 AM,26.6,23.0,86,30.11,10.0,West,5.8,-,N/A,,Clear,270,2013-10-16 11:55:00
7:15 AM,26.4,23.0,87,30.10,10.0,SW,6.9,-,N/A,,Clear,230,2013-10-16 12:15:00
7:35 AM,25.7,22.8,89,30.10,10.0,WSW,6.9,-,N/A,,Clear,250,2013-10-16 12:35:00
7:55 AM,25.9,22.5,87,30.10,10.0,West,5.8,-,N/A,,Clear,270,2013-10-16 12:55:00
8:15 AM,26.1,22.8,88,30.09,10.0,West,8.1,-,N/A,,Clear,260,2013-10-16 13:15:00
8:35 AM,26.6,23.0,86,30.09,10.0,West,6.9,-,N/A,,Clear,260,2013-10-16 13:35:00
8:55 AM,27.7,24.1,86,30.08,10.0,WSW,5.8,-,N/A,,Clear,240,2013-10-16 13:55:00
9:15 AM,29.8,25.5,84,30.08,10.0,WSW,8.1,-,N/A,,Clear,240,2013-10-16 14:15:00
9:35 AM,31.8,27.1,83,30.08,10.0,WSW,6.9,-,N/A,,Clear,240,2013-10-16 14:35:00
9:55 AM,33.1,28.0,82,30.08,10.0,West,9.2,-,N/A,,Clear,260,2013-10-16 14:55:00
10:15 AM,35.8,30.0,80,30.08,10.0,West,5.8,-,N/A,,Clear,260,2013-10-16 15:15:00
10:35 AM,38.5,28.8,68,30.08,10.0,WNW,9.2,-,N/A,,Clear,290,2013-10-16 15:35:00
10:55 AM,39.9,28.6,64,30.08,10.0,West,9.2,-,N/A,,Clear,280,2013-10-16 15:55:00
11:15 AM,40.5,28.4,62,30.08,10.0,West,9.2,-,N/A,,Clear,280,2013-10-16 16:15:00
11:35 AM,41.5,29.5,62,30.07,10.0,WNW,8.1,-,N/A,,Clear,290,2013-10-16 16:35:00
11:55 AM,44.2,29.1,55,30.07,10.0,NW,9.2,-,N/A,,Clear,310,2013-10-16 16:55:00
12:15 PM,46.2,26.4,46,30.06,10.0,NW,10.4,-,N/A,,Clear,310,2013-10-16 17:15:00
12:35 PM,46.0,25.5,45,30.06,10.0,NW,9.2,-,N/A,,Clear,320,2013-10-16 17:35:00
12:55 PM,46.8,26.4,45,30.05,10.0,NW,8.1,-,N/A,,Clear,320,2013-10-16 17:55:00
1:15 PM,46.9,25.9,44,30.04,10.0,NW,8.1,-,N/A,,Clear,310,2013-10-16 18:15:00
1:35 PM,48.0,24.6,40,30.04,10.0,NW,11.5,-,N/A,,Clear,320,2013-10-16 18:35:00
1:55 PM,50.0,23.7,36,30.02,10.0,NW,8.1,18.4,N/A,,Clear,310,2013-10-16 18:55:00
2:15 PM,50.4,21.2,32,30.01,10.0,WNW,11.5,17.3,N/A,,Clear,300,2013-10-16 19:15:00
2:35 PM,51.4,21.2,31,30.00,10.0,NNW,10.4,-,N/A,,Clear,340,2013-10-16 19:35:00
2:55 PM,51.8,15.4,24,30.00,10.0,NNW,11.5,18.4,N/A,,Clear,330,2013-10-16 19:55:00
3:15 PM,52.7,20.8,29,30.00,10.0,NNW,5.8,-,N/A,,Clear,340,2013-10-16 20:15:00
3:35 PM,52.2,18.1,26,29.99,10.0,NW,12.7,17.3,N/A,,Clear,320,2013-10-16 20:35:00
3:55 PM,52.9,17.6,25,29.98,10.0,NW,11.5,16.1,N/A,,Clear,320,2013-10-16 20:55:00
4:15 PM,52.9,19.0,26,29.98,10.0,NNW,11.5,-,N/A,,Clear,330,2013-10-16 21:15:00
4:35 PM,53.1,16.7,24,29.98,10.0,NNW,12.7,19.6,N/A,,Clear,330,2013-10-16 21:35:00
4:55 PM,53.6,18.9,26,29.97,10.0,NNW,17.3,20.7,N/A,,Clear,340,2013-10-16 21:55:00
5:15 PM,53.6,19.9,27,29.97,10.0,NW,17.3,21.9,N/A,,Clear,320,2013-10-16 22:15:00
5:35 PM,52.9,20.3,28,29.97,10.0,NW,13.8,17.3,N/A,,Clear,310,2013-10-16 22:35:00
5:55 PM,52.7,20.5,28,29.97,10.0,NNW,12.7,19.6,N/A,,Clear,330,2013-10-16 22:55:00
6:15 PM,51.8,20.8,30,29.98,10.0,NNW,11.5,-,N/A,,Clear,330,2013-10-16 23:15:00
6:35 PM,50.5,20.3,30,29.98,10.0,NNW,10.4,-,N/A,,Clear,330,2013-10-16 23:35:00
6:55 PM,48.0,23.2,38,29.98,10.0,NNW,6.9,-,N/A,,Clear,330,2013-10-16 23:55:00
7:15 PM,45.5,23.9,43,29.98,10.0,NNW,6.9,-,N/A,,Clear,330,2013-10-17 00:15:00
7:35 PM,41.7,26.1,54,29.98,10.0,NNW,6.9,-,N/A,,Clear,340,2013-10-17 00:35:00
7:55 PM,38.1,27.0,64,29.99,10.0,NNW,4.6,-,N/A,,Clear,330,2013-10-17 00:55:00
8:15 PM,36.7,26.8,67,29.99,10.0,WNW,8.1,-,N/A,,Clear,290,2013-10-17 01:15:00
8:35 PM,36.5,27.1,69,30.00,10.0,WNW,6.9,-,N/A,,Clear,290,2013-10-17 01:35:00
8:55 PM,35.4,27.7,73,30.00,10.0,WNW,8.1,-,N/A,,Clear,290,2013-10-17 01:55:00
9:15 PM,36.5,28.4,72,30.00,10.0,WNW,6.9,-,N/A,,Clear,300,2013-10-17 02:15:00
9:35 PM,36.9,29.1,74,30.01,10.0,WNW,10.4,-,N/A,,Clear,290,2013-10-17 02:35:00
9:55 PM,39.0,29.1,68,30.01,10.0,WNW,10.4,-,N/A,,Clear,300,2013-10-17 02:55:00
10:15 PM,38.1,29.1,70,30.02,10.0,WNW,10.4,-,N/A,,Clear,290,2013-10-17 03:15:00
10:35 PM,38.8,29.3,69,30.02,10.0,WNW,9.2,-,N/A,,Clear,290,2013-10-17 03:35:00
10:55 PM,37.0,29.1,73,30.02,10.0,WNW,10.4,-,N/A,,Clear,300,2013-10-17 03:55:00
11:15 PM,38.5,29.1,69,30.02,10.0,NW,9.2,-,N/A,,Clear,310,2013-10-17 04:15:00
11:35 PM,37.8,28.4,69,30.02,10.0,NW,8.1,-,N/A,,Clear,320,2013-10-17 04:35:00
11:55 PM,36.5,28.4,72,30.02,10.0,NW,6.9,-,N/A,,Clear,310,2013-10-17 04:55:00